Time,TemperatureF,DewpointF,PressureIn,WindDirection,WindDirectionDegrees,WindSpeedMPH,WindSpeedGustMPH,Humidity,HourlyPrecipIn,Conditions,Clouds,dailyrainin,SoftwareType,DateUTC
2013-03-12 00:08:00,28.8,24.0,29.90,WNW,284,12.0,24.0,81,0.00,,,0.00,weatherlink.com 1.10,2013-03-12 05:08:00,
2013-03-12 00:23:00,28.5,23.0,29.90,WNW,283,17.0,22.0,81,0.00,,,0.00,weatherlink.com 1.10,2013-03-12 05:23:00,
2013-03-12 00:38:00,28.3,24.0,29.90,NW,313,18.0,20.0,83,0.00,,,0.00,weatherlink.com 1.10,2013-03-12 05:38:00,
2013-03-12 00:53:00,28.3,24.0,29.91,West,281,16.0,21.0,84,0.00,,,0.00,weatherlink.com 1.10,2013-03-12 05:53:00,
2013-03-12 01:08:00,28.1,24.0,29.91,West,274,17.0,23.0,84,0.00,,,0.00,weatherlink.com 1.10,2013-03-12 06:08:00,
2013-03-12 01:23:00,28.2,25.0,29.91,West,272,13.0,19.0,86,0.00,,,0.00,weatherlink.com 1.10,2013-03-12 06:23:00,
2013-03-12 01:38:00,28.0,24.0,29.93,WNW,291,19.0,24.0,86,0.00,,,0.00,weatherlink.com 1.10,2013-03-12 06:38:00,
2013-03-12 01:53:00,27.7,24.0,29.93,West,267,18.0,24.0,87,0.00,,,0.00,weatherlink.com 1.10,2013-03-12 06:53:00,
2013-03-12 02:08:00,27.4,24.0,29.94,West,273,16.0,22.0,86,0.00,,,0.00,weatherlink.com 1.10,2013-03-12 07:08:00,
2013-03-12 02:23:00,27.1,24.0,29.95,West,263,9.0,19.0,86,0.00,,,0.00,weatherlink.com 1.10,2013-03-12 07:23:00,
2013-03-12 02:38:00,27.0,23.0,29.95,West,260,15.0,20.0,86,0.00,,,0.00,weatherlink.com 1.10,2013-03-12 07:38:00,
2013-03-12 02:53:00,27.0,23.0,29.95,West,260,14.0,17.0,85,0.00,,,0.00,weatherlink.com 1.10,2013-03-12 07:53:00,
2013-03-12 03:08:00,26.8,23.0,29.95,WNW,286,7.0,17.0,85,0.00,,,0.00,weatherlink.com 1.10,2013-03-12 08:08:00,
2013-03-12 03:23:00,26.5,22.0,29.95,West,263,16.0,16.0,84,0.00,,,0.00,weatherlink.com 1.10,2013-03-12 08:23:00,
2013-03-12 03:39:00,26.3,22.0,29.95,West,270,15.0,19.0,83,0.00,,,0.00,weatherlink.com 1.10,2013-03-12 08:39:00,
2013-03-12 03:55:00,26.2,21.0,29.95,West,278,11.0,18.0,82,0.00,,,0.00,weatherlink.com 1.10,2013-03-12 08:55:00,
2013-03-12 04:09:00,26.1,21.0,29.95,WNW,303,8.0,18.0,82,0.00,,,0.00,weatherlink.com 1.10,2013-03-12 09:09:00,
2013-03-12 04:24:00,25.9,21.0,29.94,West,269,12.0,16.0,83,0.00,,,0.00,weatherlink.com 1.10,2013-03-12 09:24:00,
2013-03-12 04:39:00,25.8,22.0,29.94,WSW,248,8.0,14.0,84,0.00,,,0.00,weatherlink.com 1.10,2013-03-12 09:39:00,
2013-03-12 04:54:00,25.8,22.0,29.94,West,279,15.0,15.0,85,0.00,,,0.00,weatherlink.com 1.10,2013-03-12 09:54:00,
2013-03-12 05:09:00,25.6,22.0,29.95,WSW,255,12.0,14.0,86,0.00,,,0.00,weatherlink.com 1.10,2013-03-12 10:09:00,
2013-03-12 05:24:00,25.6,22.0,29.95,WNW,286,11.0,13.0,87,0.00,,,0.00,weatherlink.com 1.10,2013-03-12 10:24:00,
2013-03-12 05:39:00,25.7,23.0,29.96,SW,235,9.0,16.0,88,0.00,,,0.00,weatherlink.com 1.10,2013-03-12 10:39:00,
2013-03-12 05:54:00,25.9,23.0,29.96,West,270,6.0,13.0,89,0.00,,,0.00,weatherlink.com 1.10,2013-03-12 10:54:00,
2013-03-12 06:09:00,25.9,23.0,29.97,West,259,13.0,15.0,90,0.00,,,0.00,weatherlink.com 1.10,2013-03-12 11:09:00,
2013-03-12 06:24:00,25.9,23.0,29.97,West,272,13.0,16.0,90,0.00,,,0.00,weatherlink.com 1.10,2013-03-12 11:24:00,
2013-03-12 06:39:00,26.0,24.0,29.97,West,263,12.0,15.0,90,0.00,,,0.00,weatherlink.com 1.10,2013-03-12 11:39:00,
2013-03-12 06:54:00,26.0,24.0,29.97,West,273,8.0,14.0,90,0.00,,,0.00,weatherlink.com 1.10,2013-03-12 11:54:00,
2013-03-12 07:09:00,26.0,24.0,29.97,West,276,11.0,14.0,90,0.00,,,0.00,weatherlink.com 1.10,2013-03-12 12:09:00,
2013-03-12 07:24:00,25.9,23.0,29.97,WSW,252,10.0,14.0,90,0.00,,,0.00,weatherlink.com 1.10,2013-03-12 12:24:00,
2013-03-12 07:39:00,26.1,24.0,29.96,WSW,242,7.0,11.0,91,0.00,,,0.00,weatherlink.com 1.10,2013-03-12 12:39:00,
2013-03-12 07:54:00,26.3,24.0,29.96,West,267,11.0,12.0,90,0.00,,,0.00,weatherlink.com 1.10,2013-03-12 12:54:00,
2013-03-12 08:09:00,26.7,24.0,29.98,West,259,12.0,14.0,89,0.00,,,0.00,weatherlink.com 1.10,2013-03-12 13:09:00,
2013-03-12 08:24:00,26.9,24.0,29.98,West,280,16.0,17.0,88,0.00,,,0.00,weatherlink.com 1.10,2013-03-12 13:24:00,
2013-03-12 08:39:00,27.1,24.0,29.98,West,269,9.0,16.0,86,0.00,,,0.00,weatherlink.com 1.10,2013-03-12 13:39:00,
2013-03-12 08:54:00,27.9,24.0,29.98,SW,236,13.0,14.0,86,0.00,,,0.00,weatherlink.com 1.10,2013-03-12 13:54:00,
2013-03-12 09:09:00,28.6,25.0,29.98,WSW,253,10.0,13.0,86,0.00,,,0.00,weatherlink.com 1.10,2013-03-12 14:09:00,
2013-03-12 09:24:00,29.0,25.0,29.99,West,265,15.0,15.0,85,0.00,,,0.00,weatherlink.com 1.10,2013-03-12 14:24:00,
2013-03-12 09:39:00,29.7,25.0,30.00,West,276,12.0,18.0,84,0.00,,,0.00,weatherlink.com 1.10,2013-03-12 14:39:00,
2013-03-12 09:54:00,29.6,25.0,30.00,West,269,18.0,19.0,83,0.00,,,0.00,weatherlink.com 1.10,2013-03-12 14:54:00,
2013-03-12 10:09:00,30.1,26.0,30.00,WSW,242,17.0,19.0,83,0.00,,,0.00,weatherlink.com 1.10,2013-03-12 15:09:00,
2013-03-12 10:24:00,30.6,26.0,30.00,WSW,248,17.0,18.0,84,0.00,,,0.00,weatherlink.com 1.10,2013-03-12 15:24:00,
2013-03-12 10:39:00,31.3,27.0,30.00,WSW,247,17.0,19.0,83,0.00,,,0.00,weatherlink.com 1.10,2013-03-12 15:39:00,
2013-03-12 10:54:00,31.8,27.0,29.99,West,260,12.0,18.0,83,0.00,,,0.00,weatherlink.com 1.10,2013-03-12 15:54:00,
2013-03-12 11:09:00,32.4,28.0,30.00,SW,220,8.0,17.0,82,0.00,,,0.00,weatherlink.com 1.10,2013-03-12 16:09:00,
2013-03-12 11:24:00,32.3,28.0,30.00,WSW,241,14.0,18.0,83,0.00,,,0.00,weatherlink.com 1.10,2013-03-12 16:24:00,
2013-03-12 11:39:00,31.8,28.0,30.00,WSW,242,13.0,23.0,85,0.00,,,0.00,weatherlink.com 1.10,2013-03-12 16:39:00,
2013-03-12 11:54:00,31.3,28.0,30.00,WSW,243,13.0,21.0,87,0.00,,,0.00,weatherlink.com 1.10,2013-03-12 16:54:00,
2013-03-12 12:09:00,31.1,28.0,30.00,SW,235,16.0,21.0,88,0.00,,,0.00,weatherlink.com 1.10,2013-03-12 17:09:00,
2013-03-12 12:24:00,30.8,29.0,30.00,WSW,241,14.0,22.0,91,0.00,,,0.00,weatherlink.com 1.10,2013-03-12 17:24:00,
2013-03-12 12:39:00,30.2,29.0,30.00,WSW,255,10.0,26.0,93,0.00,,,0.00,weatherlink.com 1.10,2013-03-12 17:39:00,
2013-03-12 12:54:00,30.2,29.0,30.00,SW,232,16.0,21.0,94,0.00,,,0.00,weatherlink.com 1.10,2013-03-12 17:54:00,
2013-03-12 13:09:00,30.8,29.0,30.00,WSW,241,17.0,25.0,94,0.00,,,0.00,weatherlink.com 1.10,2013-03-12 18:09:00,
2013-03-12 13:24:00,30.9,29.0,30.00,WSW,258,13.0,23.0,93,0.00,,,0.00,weatherlink.com 1.10,2013-03-12 18:24:00,
2013-03-12 13:39:00,31.0,29.0,30.01,West,260,12.0,24.0,91,0.00,,,0.00,weatherlink.com 1.10,2013-03-12 18:39:00,
2013-03-12 13:54:00,31.5,29.0,30.01,West,265,14.0,21.0,89,0.00,,,0.00,weatherlink.com 1.10,2013-03-12 18:54:00,
2013-03-12 14:09:00,31.8,29.0,30.00,WSW,252,18.0,21.0,89,0.00,,,0.00,weatherlink.com 1.10,2013-03-12 19:09:00,
2013-03-12 14:25:00,32.3,29.0,30.00,West,260,13.0,24.0,88,0.00,,,0.00,weatherlink.com 1.10,2013-03-12 19:25:00,
2013-03-12 14:39:00,32.3,29.0,30.00,West,262,14.0,21.0,88,0.00,,,0.00,weatherlink.com 1.10,2013-03-12 19:39:00,
2013-03-12 14:55:00,32.7,30.0,30.00,West,269,10.0,22.0,88,0.00,,,0.00,weatherlink.com 1.10,2013-03-12 19:55:00,
2013-03-12 15:10:00,32.9,30.0,29.99,WSW,254,17.0,22.0,88,0.00,,,0.00,weatherlink.com 1.10,2013-03-12 20:10:00,
2013-03-12 15:25:00,32.3,30.0,30.00,WSW,254,22.0,27.0,90,0.00,,,0.00,weatherlink.com 1.10,2013-03-12 20:25:00,
2013-03-12 15:40:00,32.7,30.0,30.00,West,272,16.0,24.0,90,0.00,,,0.00,weatherlink.com 1.10,2013-03-12 20:40:00,
2013-03-12 15:55:00,31.9,30.0,30.00,WNW,291,12.0,25.0,93,0.00,,,0.00,weatherlink.com 1.10,2013-03-12 20:55:00,
2013-03-12 16:10:00,32.9,29.0,30.00,West,276,19.0,34.0,86,0.00,,,0.00,weatherlink.com 1.10,2013-03-12 21:10:00,
2013-03-12 16:25:00,33.2,28.0,30.00,WNW,284,23.0,26.0,82,0.00,,,0.00,weatherlink.com 1.10,2013-03-12 21:25:00,
2013-03-12 16:40:00,33.2,27.0,30.01,NW,314,19.0,25.0,79,0.00,,,0.00,weatherlink.com 1.10,2013-03-12 21:40:00,
2013-03-12 16:55:00,32.5,26.0,30.01,WNW,290,25.0,29.0,77,0.00,,,0.00,weatherlink.com 1.10,2013-03-12 21:55:00,
2013-03-12 17:10:00,31.6,25.0,30.02,NW,309,26.0,28.0,77,0.00,,,0.00,weatherlink.com 1.10,2013-03-12 22:10:00,
2013-03-12 17:25:00,30.8,25.0,30.03,WNW,287,15.0,28.0,80,0.00,,,0.00,weatherlink.com 1.10,2013-03-12 22:25:00,
2013-03-12 17:40:00,30.7,25.0,30.03,West,281,11.0,27.0,78,0.00,,,0.00,weatherlink.com 1.10,2013-03-12 22:40:00,
2013-03-12 17:55:00,29.9,23.0,30.04,WNW,286,13.0,27.0,76,0.00,,,0.00,weatherlink.com 1.10,2013-03-12 22:55:00,
2013-03-12 18:10:00,29.5,23.0,30.05,NW,305,22.0,26.0,77,0.00,,,0.00,weatherlink.com 1.10,2013-03-12 23:10:00,
2013-03-12 18:25:00,29.0,23.0,30.06,NW,304,16.0,31.0,78,0.00,,,0.00,weatherlink.com 1.10,2013-03-12 23:25:00,
2013-03-12 18:40:00,28.8,23.0,30.07,WNW,298,13.0,30.0,78,0.00,,,0.00,weatherlink.com 1.10,2013-03-12 23:40:00,
2013-03-12 18:55:00,28.0,22.0,30.07,WNW,291,25.0,29.0,78,0.00,,,0.00,weatherlink.com 1.10,2013-03-12 23:55:00,
2013-03-12 19:10:00,27.3,23.0,30.09,WNW,300,15.0,25.0,84,0.00,,,0.00,weatherlink.com 1.10,2013-03-13 00:10:00,
2013-03-12 19:25:00,27.0,22.0,30.09,WNW,284,13.0,31.0,80,0.00,,,0.00,weatherlink.com 1.10,2013-03-13 00:25:00,
2013-03-12 19:40:00,26.8,23.0,30.10,West,280,25.0,29.0,84,0.00,,,0.00,weatherlink.com 1.10,2013-03-13 00:40:00,
2013-03-12 19:55:00,26.6,22.0,30.10,WNW,290,15.0,26.0,82,0.00,,,0.00,weatherlink.com 1.10,2013-03-13 00:55:00,
2013-03-12 20:10:00,26.8,22.0,30.11,NW,304,16.0,26.0,81,0.00,,,0.00,weatherlink.com 1.10,2013-03-13 01:10:00,
2013-03-12 20:25:00,26.9,21.0,30.11,WNW,303,16.0,32.0,77,0.00,,,0.00,weatherlink.com 1.10,2013-03-13 01:25:00,
2013-03-12 20:40:00,26.6,21.0,30.11,NW,322,10.0,22.0,80,0.00,,,0.00,weatherlink.com 1.10,2013-03-13 01:40:00,
2013-03-12 20:55:00,26.2,21.0,30.11,West,259,17.0,28.0,79,0.00,,,0.00,weatherlink.com 1.10,2013-03-13 01:55:00,
2013-03-12 21:10:00,26.1,21.0,30.12,West,262,8.0,26.0,80,0.00,,,0.00,weatherlink.com 1.10,2013-03-13 02:10:00,
2013-03-12 21:25:00,26.1,20.0,30.13,WNW,301,17.0,26.0,79,0.00,,,0.00,weatherlink.com 1.10,2013-03-13 02:25:00,
2013-03-12 21:40:00,26.2,20.0,30.13,NNE,16,11.0,29.0,77,0.00,,,0.00,weatherlink.com 1.10,2013-03-13 02:40:00,
2013-03-12 21:55:00,26.1,20.0,30.14,WNW,294,18.0,32.0,78,0.00,,,0.00,weatherlink.com 1.10,2013-03-13 02:55:00,
2013-03-12 22:10:00,25.8,20.0,30.14,WNW,301,22.0,27.0,78,0.00,,,0.00,weatherlink.com 1.10,2013-03-13 03:10:00,
2013-03-12 22:25:00,25.6,20.0,30.14,West,280,14.0,23.0,79,0.00,,,0.00,weatherlink.com 1.10,2013-03-13 03:25:00,
2013-03-12 22:40:00,25.5,20.0,30.14,NW,307,14.0,24.0,80,0.00,,,0.00,weatherlink.com 1.10,2013-03-13 03:40:00,
2013-03-12 22:55:00,25.3,20.0,30.14,WNW,294,14.0,25.0,80,0.00,,,0.00,weatherlink.com 1.10,2013-03-13 03:55:00,
2013-03-12 23:10:00,25.2,20.0,30.15,WNW,303,8.0,19.0,82,0.00,,,0.00,weatherlink.com 1.10,2013-03-13 04:10:00,
2013-03-12 23:26:00,25.3,21.0,30.15,WNW,286,10.0,25.0,83,0.00,,,0.00,weatherlink.com 1.10,2013-03-13 04:26:00,
2013-03-12 23:41:00,25.2,21.0,30.15,WNW,295,11.0,21.0,84,0.00,,,0.00,weatherlink.com 1.10,2013-03-13 04:41:00,
2013-03-12 23:56:00,25.0,21.0,30.16,WNW,300,12.0,23.0,85,0.00,,,0.00,weatherlink.com 1.10,2013-03-13 04:56:00,